| time (UTC) | temp F | wind direction | speed MPH | gust MPH | rain 1hr in | rain 24hr in | rain mn in | humidity % | barometer mb |
| 20260506172325 | 59 | 211 | 5.0 | 13.0 | 0.05 | 0.00 | 0.33 | 93 | 1003.3 |
| 20260506171815 | 59 | 200 | 6.0 | 10.0 | 0.05 | 0.00 | 0.33 | 94 | 1003.3 |
| 20260506171322 | 58 | 228 | 6.0 | 12.0 | 0.05 | 0.00 | 0.32 | 93 | 1003.4 |
| 20260506170831 | 58 | 201 | 7.0 | 12.0 | 0.06 | 0.00 | 0.32 | 93 | 1003.4 |
| 20260506170321 | 58 | 205 | 7.0 | 12.0 | 0.08 | 0.00 | 0.32 | 93 | 1003.4 |
| 20260506165830 | 58 | 221 | 5.0 | 9.0 | 0.08 | 0.00 | 0.31 | 93 | 1003.4 |
| 20260506165313 | 58 | 178 | 4.0 | 9.0 | 0.08 | 0.00 | 0.31 | 93 | 1003.3 |
| 20260506164822 | 58 | 200 | 5.0 | 10.0 | 0.09 | 0.00 | 0.31 | 93 | 1003.4 |
| 20260506164351 | 58 | 215 | 5.0 | 10.0 | 0.09 | 0.00 | 0.30 | 93 | 1003.5 |
| 20260506163818 | 58 | 235 | 4.0 | 8.0 | 0.00 | 0.00 | 0.30 | 93 | 1003.5 |
| 20260506163326 | 58 | 222 | 4.0 | 11.0 | 0.00 | 0.00 | 0.30 | 93 | 1003.5 |
| 20260506162815 | 58 | 196 | 7.0 | 11.0 | 0.00 | 0.00 | 0.29 | 93 | 1003.6 |
| 20260506162323 | 58 | 211 | 5.0 | 9.0 | 0.00 | 0.00 | 0.28 | 94 | 1003.6 |
| 20260506161827 | 58 | 265 | 5.0 | 11.0 | 0.00 | 0.00 | 0.28 | 94 | 1003.6 |
| 20260506161317 | 58 | 193 | 5.0 | 11.0 | 0.00 | 0.00 | 0.27 | 94 | 1003.7 |
| 20260506160847 | 58 | 210 | 6.0 | 11.0 | 0.00 | 0.00 | 0.26 | 94 | 1003.7 |
| 20260506160314 | 58 | 205 | 5.0 | 11.0 | 0.00 | 0.00 | 0.24 | 94 | 1003.9 |
| 20260506155824 | 58 | 229 | 3.0 | 6.0 | 0.00 | 0.00 | 0.24 | 94 | 1003.9 |
| 20260506155314 | 58 | 198 | 4.0 | 9.0 | 0.00 | 0.00 | 0.23 | 94 | 1003.9 |
| 20260506154822 | 58 | 217 | 4.0 | 9.0 | 0.00 | 0.00 | 0.22 | 94 | 1003.8 |
| 20260506153827 | 58 | 192 | 4.0 | 6.0 | 0.02 | 0.22 | 0.21 | 94 | 1004.7 |
| 20260506153346 | 58 | 226 | 3.0 | 5.0 | 0.01 | 0.21 | 0.20 | 94 | 1004.7 |
| 20260506152813 | 57 | 226 | 2.0 | 4.0 | 0.02 | 0.21 | 0.20 | 94 | 1004.7 |
| 20260506152321 | 57 | 257 | 3.0 | 5.0 | 0.02 | 0.21 | 0.20 | 94 | 1004.7 |
| 20260506151848 | 57 | 236 | 2.0 | 5.0 | 0.03 | 0.21 | 0.20 | 94 | 1004.5 |
| 20260506151316 | 57 | 212 | 3.0 | 5.0 | 0.04 | 0.21 | 0.20 | 94 | 1004.4 |
| 20260506150825 | 57 | 196 | 3.0 | 5.0 | 0.04 | 0.21 | 0.20 | 94 | 1004.5 |
| 20260506150315 | 57 | 232 | 2.0 | 10.0 | 0.05 | 0.21 | 0.20 | 94 | 1004.5 |
| 20260506145825 | 56 | 220 | 4.0 | 10.0 | 0.05 | 0.21 | 0.20 | 93 | 1004.6 |
| 20260506145331 | 56 | 225 | 5.0 | 12.0 | 0.05 | 0.20 | 0.19 | 93 | 1004.7 |
| 20260506144820 | 56 | 180 | 5.0 | 12.0 | 0.06 | 0.20 | 0.19 | 93 | 1004.7 |
| 20260506144320 | 56 | 208 | 4.0 | 10.0 | 0.07 | 0.20 | 0.19 | 93 | 1004.7 |
| 20260506143822 | 56 | 171 | 5.0 | 11.0 | 0.08 | 0.20 | 0.19 | 93 | 1004.7 |
| 20260506143329 | 56 | 198 | 6.0 | 11.0 | 0.09 | 0.20 | 0.19 | 93 | 1004.8 |
| 20260506142818 | 56 | 180 | 6.0 | 10.0 | 0.09 | 0.19 | 0.18 | 93 | 1004.9 |
| 20260506142325 | 56 | 215 | 5.0 | 10.0 | 0.10 | 0.19 | 0.18 | 93 | 1005.0 |
| 20260506141823 | 56 | 157 | 3.0 | 11.0 | 0.09 | 0.18 | 0.17 | 93 | 1005.1 |
| 20260506141352 | 56 | 195 | 7.0 | 12.0 | 0.08 | 0.17 | 0.16 | 93 | 1005.4 |
| 20260506140822 | 56 | 202 | 6.0 | 12.0 | 0.08 | 0.17 | 0.16 | 93 | 1005.4 |
| 20260506140331 | 56 | 195 | 6.0 | 12.0 | 0.07 | 0.16 | 0.15 | 93 | 1005.5 |
| 20260506135819 | 56 | 208 | 5.0 | 11.0 | 0.07 | 0.16 | 0.15 | 93 | 1005.6 |
| 20260506135326 | 56 | 190 | 6.0 | 11.0 | 0.06 | 0.15 | 0.14 | 93 | 1005.7 |
| 20260506134814 | 56 | 184 | 8.0 | 11.0 | 0.05 | 0.14 | 0.13 | 93 | 1005.9 |
| 20260506134323 | 56 | 212 | 7.0 | 13.0 | 0.04 | 0.13 | 0.12 | 93 | 1005.9 |
| 20260506133845 | 56 | 197 | 7.0 | 13.0 | 0.03 | 0.12 | 0.11 | 93 | 1005.9 |
| 20260506133331 | 56 | 196 | 7.0 | 11.0 | 0.03 | 0.11 | 0.10 | 93 | 1005.8 |
| 20260506132820 | 56 | 201 | 7.0 | 11.0 | 0.02 | 0.10 | 0.09 | 94 | 1005.8 |
| 20260506132327 | 55 | 215 | 8.0 | 11.0 | 0.02 | 0.10 | 0.09 | 94 | 1005.7 |
| 20260506131817 | 55 | 207 | 5.0 | 11.0 | 0.01 | 0.09 | 0.08 | 94 | 1005.6 |
| 20260506131325 | 55 | 198 | 6.0 | 10.0 | 0.01 | 0.09 | 0.08 | 95 | 1005.4 |
| 20260506130842 | 55 | 195 | 6.0 | 10.0 | 0.01 | 0.10 | 0.08 | 95 | 1005.4 |
| 20260506130330 | 54 | 205 | 3.0 | 5.0 | 0.01 | 0.10 | 0.08 | 95 | 1005.4 |
| 20260506125819 | 53 | 267 | 2.0 | 2.0 | 0.01 | 0.10 | 0.08 | 94 | 1005.4 |
| 20260506125328 | 53 | 355 | 0.0 | 1.0 | 0.02 | 0.10 | 0.08 | 94 | 1005.4 |
| 20260506124817 | 52 | 355 | 0.0 | 1.0 | 0.02 | 0.10 | 0.08 | 94 | 1005.4 |
| 20260506124323 | 52 | 355 | 0.0 | 1.0 | 0.02 | 0.10 | 0.08 | 94 | 1005.5 |
| 20260506123831 | 52 | 355 | 0.0 | 1.0 | 0.02 | 0.10 | 0.08 | 94 | 1005.5 |
| 20260506123321 | 52 | 355 | 0.0 | 1.0 | 0.02 | 0.09 | 0.07 | 94 | 1005.6 |
| 20260506122825 | 51 | 355 | 0.0 | 1.0 | 0.02 | 0.09 | 0.07 | 94 | 1005.7 |
| 20260506122347 | 51 | 355 | 0.0 | 1.0 | 0.03 | 0.09 | 0.07 | 94 | 1005.6 |
| 20260506121814 | 51 | 355 | 0.0 | 2.0 | 0.03 | 0.09 | 0.07 | 93 | 1005.7 |
| 20260506121323 | 51 | 355 | 1.0 | 3.0 | 0.03 | 0.09 | 0.07 | 93 | 1005.7 |
| 20260506120850 | 51 | 355 | 1.0 | 3.0 | 0.04 | 0.09 | 0.07 | 93 | 1005.7 |
| 20260506120339 | 51 | 355 | 2.0 | 3.0 | 0.04 | 0.09 | 0.07 | 93 | 1005.7 |
| 20260506115825 | 51 | 355 | 2.0 | 3.0 | 0.05 | 0.09 | 0.07 | 93 | 1005.6 |
| 20260506115353 | 51 | 355 | 1.0 | 2.0 | 0.04 | 0.08 | 0.06 | 93 | 1005.7 |
| 20260506114822 | 51 | 355 | 1.0 | 2.0 | 0.04 | 0.08 | 0.06 | 93 | 1005.9 |
| 20260506114332 | 51 | 355 | 0.0 | 2.0 | 0.04 | 0.08 | 0.06 | 93 | 1006.1 |
| 20260506113819 | 51 | 355 | 1.0 | 3.0 | 0.04 | 0.08 | 0.06 | 93 | 1006.2 |
| 20260506113349 | 51 | 355 | 0.0 | 3.0 | 0.04 | 0.07 | 0.05 | 93 | 1006.2 |
| 20260506112817 | 51 | 315 | 1.0 | 3.0 | 0.04 | 0.07 | 0.05 | 93 | 1006.3 |
| 20260506112322 | 51 | 315 | 1.0 | 3.0 | 0.03 | 0.06 | 0.04 | 93 | 1006.4 |
| 20260506111832 | 51 | 298 | 2.0 | 2.0 | 0.03 | 0.06 | 0.04 | 93 | 1006.3 |
| 20260506111400 | 51 | 298 | 0.0 | 3.0 | 0.03 | 0.06 | 0.04 | 92 | 1006.3 |
| 20260506110821 | 51 | 298 | 2.0 | 3.0 | 0.02 | 0.05 | 0.03 | 92 | 1006.3 |
| 20260506110329 | 51 | 298 | 1.0 | 2.0 | 0.02 | 0.05 | 0.03 | 92 | 1006.4 |
| 20260506105817 | 50 | 298 | 0.0 | 2.0 | 0.01 | 0.04 | 0.02 | 92 | 1006.2 |
| 20260506105328 | 51 | 298 | 1.0 | 2.0 | 0.02 | 0.04 | 0.02 | 92 | 1006.1 |
| 20260506104817 | 51 | 298 | 1.0 | 2.0 | 0.02 | 0.04 | 0.02 | 92 | 1006.1 |
| 20260506104321 | 51 | 298 | 0.0 | 2.0 | 0.02 | 0.04 | 0.02 | 92 | 1006.0 |
| 20260506103828 | 51 | 299 | 1.0 | 2.0 | 0.02 | 0.04 | 0.02 | 92 | 1005.9 |
| 20260506103317 | 51 | 268 | 1.0 | 2.0 | 0.01 | 0.03 | 0.01 | 92 | 1005.9 |
| 20260506102826 | 51 | 268 | 1.0 | 1.0 | 0.01 | 0.03 | 0.01 | 92 | 1005.9 |
| 20260506102315 | 51 | 268 | 0.0 | 3.0 | 0.01 | 0.03 | 0.01 | 91 | 1005.8 |
| 20260506101844 | 51 | 268 | 1.0 | 3.0 | 0.01 | 0.03 | 0.01 | 91 | 1005.9 |
| 20260506101331 | 51 | 26 | 0.0 | 2.0 | 0.01 | 0.03 | 0.01 | 91 | 1005.9 |
| 20260506100828 | 51 | 26 | 1.0 | 1.0 | 0.01 | 0.03 | 0.01 | 91 | 1006.0 |
| 20260506100316 | 50 | 26 | 0.0 | 2.0 | 0.01 | 0.03 | 0.01 | 91 | 1005.8 |
| 20260506095826 | 50 | 26 | 1.0 | 2.0 | 0.01 | 0.03 | 0.01 | 91 | 1005.9 |
| 20260506095314 | 51 | 26 | 0.0 | 2.0 | 0.00 | 0.02 | 0.00 | 90 | 1006.0 |
| 20260506094823 | 51 | 294 | 1.0 | 2.0 | 0.00 | 0.02 | 0.00 | 90 | 1005.9 |
| 20260506094332 | 51 | 294 | 1.0 | 2.0 | 0.00 | 0.02 | 0.00 | 90 | 1005.9 |
| 20260506093821 | 51 | 294 | 0.0 | 1.0 | 0.00 | 0.02 | 0.00 | 90 | 1005.8 |
| 20260506093347 | 51 | 294 | 0.0 | 1.0 | 0.00 | 0.02 | 0.00 | 90 | 1005.9 |
| 20260506092828 | 51 | 294 | 0.0 | 3.0 | 0.00 | 0.02 | 0.00 | 90 | 1005.9 |
| 20260506092318 | 51 | 294 | 0.0 | 3.0 | 0.00 | 0.02 | 0.00 | 90 | 1005.8 |
| 20260506091825 | 51 | 317 | 2.0 | 3.0 | 0.00 | 0.02 | 0.00 | 90 | 1005.7 |
| 20260506091313 | 51 | 325 | 0.0 | 2.0 | 0.00 | 0.02 | 0.00 | 90 | 1005.7 |
| 20260506090824 | 51 | 325 | 0.0 | 2.0 | 0.00 | 0.02 | 0.00 | 90 | 1005.7 |
| 20260506090314 | 51 | 333 | 1.0 | 2.0 | 0.00 | 0.02 | 0.00 | 90 | 1005.8 |
| 20260506085823 | 51 | 333 | 1.0 | 2.0 | 0.00 | 0.02 | 0.00 | 90 | 1005.8 |
| 20260506085328 | 51 | 320 | 2.0 | 2.0 | 0.00 | 0.02 | 0.00 | 90 | 1005.9 |
| 20260506084815 | 51 | 331 | 1.0 | 3.0 | 0.00 | 0.02 | 0.00 | 90 | 1005.8 |
| 20260506084324 | 51 | 321 | 1.0 | 3.0 | 0.00 | 0.02 | 0.00 | 90 | 1005.7 |
| 20260506083852 | 51 | 32 | 1.0 | 3.0 | 0.00 | 0.02 | 0.00 | 89 | 1005.8 |
| 20260506083340 | 51 | 38 | 2.0 | 3.0 | 0.00 | 0.02 | 0.00 | 89 | 1005.8 |
| 20260506082828 | 51 | 53 | 2.0 | 6.0 | 0.00 | 0.02 | 0.00 | 89 | 1005.9 |
| 20260506082339 | 51 | 31 | 4.0 | 7.0 | 0.00 | 0.02 | 0.00 | 89 | 1006.2 |
| 20260506081822 | 51 | 351 | 3.0 | 6.0 | 0.00 | 0.02 | 0.00 | 88 | 1006.2 |
| 20260506081323 | 51 | 18 | 3.0 | 5.0 | 0.00 | 0.02 | 0.00 | 89 | 1006.1 |
| 20260506080831 | 51 | 66 | 3.0 | 6.0 | 0.00 | 0.02 | 0.00 | 88 | 1006.0 |
| 20260506080321 | 51 | 63 | 4.0 | 6.0 | 0.00 | 0.02 | 0.00 | 88 | 1006.1 |
| 20260506073324 | 52 | 39 | 2.0 | 5.0 | 0.00 | 0.02 | 0.00 | 88 | 1006.4 |
| 20260506072853 | 52 | 42 | 3.0 | 9.0 | 0.00 | 0.02 | 0.00 | 88 | 1006.5 |
| 20260506072321 | 52 | 48 | 3.0 | 9.0 | 0.00 | 0.02 | 0.00 | 88 | 1006.5 |
| 20260506071829 | 52 | 51 | 4.0 | 7.0 | 0.00 | 0.02 | 0.00 | 88 | 1006.8 |
| 20260506071327 | 52 | 54 | 4.0 | 7.0 | 0.00 | 0.02 | 0.00 | 88 | 1006.8 |
| 20260506070816 | 52 | 60 | 4.0 | 5.0 | 0.00 | 0.02 | 0.00 | 88 | 1006.9 |
| 20260506070323 | 52 | 35 | 2.0 | 5.0 | 0.00 | 0.02 | 0.00 | 88 | 1006.8 |
| 20260506062332 | 53 | 5 | 1.0 | 1.0 | 0.00 | 0.02 | 0.00 | 87 | 1006.9 |
| 20260506061820 | 52 | 5 | 0.0 | 1.0 | 0.00 | 0.02 | 0.00 | 87 | 1007.0 |
| 20260506061330 | 52 | 5 | 0.0 | 2.0 | 0.00 | 0.02 | 0.00 | 87 | 1007.0 |
| 20260506060839 | 52 | 5 | 1.0 | 2.0 | 0.00 | 0.02 | 0.00 | 86 | 1007.1 |
| 20260506060320 | 53 | 5 | 0.0 | 1.0 | 0.00 | 0.02 | 0.00 | 86 | 1007.1 |
| 20260506051317 | 54 | 355 | 0.0 | 1.0 | 0.00 | 0.02 | 0.00 | 84 | 1007.8 |
| 20260506050845 | 55 | 355 | 0.0 | 1.0 | 0.00 | 0.02 | 0.00 | 83 | 1007.8 |
| 20260506050313 | 55 | 355 | 0.0 | 0.0 | 0.00 | 0.02 | 0.00 | 83 | 1007.8 |
| 20260506044820 | 55 | 355 | 0.0 | 1.0 | 0.00 | 0.02 | 0.00 | 83 | 1007.9 |
| 20260506044328 | 55 | 355 | 0.0 | 1.0 | 0.00 | 0.02 | 0.00 | 82 | 1007.9 |
| 20260506043815 | 55 | 355 | 0.0 | 2.0 | 0.00 | 0.02 | 0.02 | 82 | 1008.1 |
| 20260506043324 | 55 | 355 | 0.0 | 2.0 | 0.00 | 0.02 | 0.02 | 82 | 1008.1 |
| 20260506042813 | 55 | 355 | 1.0 | 3.0 | 0.00 | 0.02 | 0.02 | 82 | 1008.0 |
| 20260506042341 | 55 | 355 | 2.0 | 3.0 | 0.00 | 0.02 | 0.02 | 82 | 1007.9 |
| 20260506041849 | 55 | 355 | 1.0 | 2.0 | 0.00 | 0.02 | 0.02 | 82 | 1008.0 |
| 20260506041332 | 55 | 355 | 1.0 | 2.0 | 0.00 | 0.02 | 0.02 | 82 | 1008.0 |
| 20260506040813 | 55 | 355 | 0.0 | 3.0 | 0.00 | 0.02 | 0.02 | 82 | 1008.0 |
| 20260506040316 | 55 | 355 | 0.0 | 3.0 | 0.00 | 0.02 | 0.02 | 82 | 1008.2 |
| 20260506035821 | 55 | 355 | 2.0 | 4.0 | 0.00 | 0.02 | 0.02 | 82 | 1008.1 |
| 20260506035330 | 55 | 355 | 2.0 | 4.0 | 0.00 | 0.02 | 0.02 | 82 | 1008.3 |
| 20260506034839 | 55 | 351 | 3.0 | 4.0 | 0.00 | 0.02 | 0.02 | 82 | 1008.3 |
| 20260506034319 | 55 | 355 | 1.0 | 5.0 | 0.00 | 0.02 | 0.02 | 82 | 1008.3 |
| 20260506033828 | 55 | 327 | 3.0 | 5.0 | 0.00 | 0.02 | 0.02 | 82 | 1008.3 |
| 20260506033316 | 55 | 347 | 2.0 | 6.0 | 0.00 | 0.02 | 0.02 | 82 | 1008.2 |
| 20260506032821 | 55 | 351 | 4.0 | 6.0 | 0.00 | 0.02 | 0.02 | 82 | 1008.1 |
| 20260506032330 | 55 | 355 | 2.0 | 4.0 | 0.00 | 0.02 | 0.02 | 83 | 1008.3 |
| 20260506031858 | 55 | 35 | 2.0 | 6.0 | 0.00 | 0.02 | 0.02 | 83 | 1008.4 |
| 20260506031337 | 55 | 28 | 4.0 | 7.0 | 0.00 | 0.02 | 0.02 | 83 | 1008.2 |
| 20260506030824 | 55 | 360 | 3.0 | 7.0 | 0.00 | 0.02 | 0.02 | 84 | 1008.3 |
| 20260506030314 | 55 | 5 | 4.0 | 9.0 | 0.00 | 0.02 | 0.02 | 84 | 1008.3 |
| 20260506025821 | 55 | 36 | 5.0 | 9.0 | 0.00 | 0.02 | 0.02 | 84 | 1008.1 |
| 20260506025326 | 56 | 56 | 4.0 | 7.0 | 0.00 | 0.02 | 0.02 | 85 | 1008.3 |
| 20260506024814 | 56 | 355 | 5.0 | 7.0 | 0.00 | 0.02 | 0.02 | 85 | 1008.3 |
| 20260506024342 | 56 | 15 | 5.0 | 7.0 | 0.00 | 0.02 | 0.02 | 84 | 1008.1 |
| 20260506023851 | 56 | 30 | 4.0 | 10.0 | 0.00 | 0.02 | 0.02 | 84 | 1008.2 |
| 20260506023319 | 56 | 40 | 6.0 | 11.0 | 0.00 | 0.02 | 0.02 | 84 | 1008.2 |
| 20260506022826 | 56 | 41 | 5.0 | 11.0 | 0.00 | 0.02 | 0.02 | 84 | 1008.0 |
| 20260506022315 | 56 | 5 | 5.0 | 10.0 | 0.00 | 0.02 | 0.02 | 84 | 1007.9 |
| 20260506021820 | 57 | 28 | 4.0 | 10.0 | 0.00 | 0.02 | 0.02 | 83 | 1007.9 |
| 20260506021350 | 57 | 5 | 7.0 | 10.0 | 0.00 | 0.02 | 0.02 | 83 | 1008.0 |
| 20260506020819 | 57 | 22 | 6.0 | 13.0 | 0.00 | 0.02 | 0.02 | 84 | 1008.0 |
| 20260506020320 | 57 | 12 | 3.0 | 13.0 | 0.00 | 0.02 | 0.02 | 84 | 1007.9 |
| 20260506015831 | 57 | 360 | 4.0 | 11.0 | 0.00 | 0.02 | 0.02 | 84 | 1007.9 |
| 20260506015318 | 58 | 355 | 4.0 | 11.0 | 0.00 | 0.02 | 0.02 | 84 | 1007.8 |
| 20260506014827 | 58 | 5 | 5.0 | 13.0 | 0.00 | 0.02 | 0.02 | 85 | 1007.9 |
| 20260506014325 | 58 | 347 | 5.0 | 13.0 | 0.00 | 0.02 | 0.02 | 85 | 1007.7 |
| 20260506013815 | 59 | 34 | 6.0 | 16.0 | 0.00 | 0.02 | 0.02 | 85 | 1007.7 |
| 20260506013323 | 59 | 360 | 8.0 | 16.0 | 0.00 | 0.02 | 0.02 | 86 | 1007.4 |
| 20260506012815 | 60 | 25 | 11.0 | 16.0 | 0.00 | 0.02 | 0.02 | 87 | 1007.2 |
| 20260506012322 | 60 | 355 | 6.0 | 13.0 | 0.00 | 0.02 | 0.02 | 89 | 1007.2 |
| 20260506011830 | 60 | 338 | 4.0 | 5.0 | 0.00 | 0.02 | 0.02 | 89 | 1006.8 |
| 20260506011338 | 60 | 333 | 2.0 | 3.0 | 0.00 | 0.02 | 0.02 | 89 | 1006.7 |
| 20260506010821 | 60 | 203 | 2.0 | 3.0 | 0.00 | 0.02 | 0.02 | 89 | 1006.7 |
| 20260506010329 | 60 | 203 | 1.0 | 4.0 | 0.00 | 0.02 | 0.02 | 89 | 1006.7 |
| 20260506005818 | 60 | 203 | 2.0 | 6.0 | 0.00 | 0.02 | 0.02 | 89 | 1006.5 |
| 20260506005327 | 60 | 194 | 3.0 | 9.0 | 0.00 | 0.02 | 0.02 | 88 | 1006.4 |
| 20260506004817 | 60 | 185 | 6.0 | 9.0 | 0.00 | 0.02 | 0.02 | 88 | 1006.4 |
| 20260506004328 | 61 | 195 | 5.0 | 6.0 | 0.00 | 0.02 | 0.02 | 88 | 1006.1 |
| 20260506003837 | 61 | 215 | 4.0 | 5.0 | 0.00 | 0.02 | 0.02 | 87 | 1006.3 |
| 20260506003324 | 61 | 245 | 3.0 | 4.0 | 0.01 | 0.02 | 0.02 | 87 | 1005.9 |
| 20260506002828 | 61 | 250 | 2.0 | 4.0 | 0.01 | 0.02 | 0.02 | 86 | 1005.7 |
| 20260506002316 | 61 | 239 | 2.0 | 4.0 | 0.01 | 0.02 | 0.02 | 85 | 1005.7 |
| 20260506001825 | 61 | 196 | 2.0 | 4.0 | 0.01 | 0.02 | 0.02 | 84 | 1005.6 |
| 20260506001314 | 62 | 193 | 1.0 | 6.0 | 0.01 | 0.02 | 0.02 | 84 | 1005.6 |
| 20260506000824 | 62 | 186 | 3.0 | 6.0 | 0.01 | 0.02 | 0.02 | 83 | 1005.6 |
| 20260506000315 | 62 | 212 | 2.0 | 5.0 | 0.01 | 0.02 | 0.02 | 82 | 1005.7 |
| 20260505235823 | 62 | 205 | 2.0 | 5.0 | 0.01 | 0.02 | 0.02 | 82 | 1005.7 |
| 20260505235330 | 62 | 198 | 2.0 | 7.0 | 0.01 | 0.02 | 0.02 | 81 | 1005.7 |
| 20260505234815 | 63 | 179 | 6.0 | 11.0 | 0.01 | 0.02 | 0.02 | 80 | 1005.7 |
| 20260505234324 | 63 | 178 | 6.0 | 13.0 | 0.01 | 0.02 | 0.02 | 80 | 1005.7 |
| 20260505233814 | 63 | 199 | 12.0 | 13.0 | 0.01 | 0.02 | 0.02 | 79 | 1005.7 |
| 20260505233322 | 64 | 182 | 7.0 | 12.0 | 0.00 | 0.01 | 0.01 | 78 | 1005.6 |
| 20260505232830 | 64 | 198 | 8.0 | 13.0 | 0.00 | 0.01 | 0.01 | 77 | 1005.6 |
| 20260505232339 | 64 | 199 | 9.0 | 13.0 | 0.00 | 0.01 | 0.01 | 76 | 1005.5 |
| 20260505231818 | 64 | 192 | 8.0 | 11.0 | 0.00 | 0.01 | 0.01 | 76 | 1005.4 |
| 20260505231328 | 64 | 186 | 7.0 | 11.0 | 0.00 | 0.01 | 0.01 | 77 | 1005.2 |
| 20260505230813 | 64 | 184 | 5.0 | 10.0 | 0.00 | 0.01 | 0.01 | 77 | 1005.2 |
| 20260505230343 | 64 | 170 | 6.0 | 11.0 | 0.00 | 0.01 | 0.01 | 77 | 1005.2 |
| 20260505225829 | 64 | 198 | 7.0 | 11.0 | 0.00 | 0.01 | 0.01 | 77 | 1005.3 |
| 20260505225319 | 64 | 198 | 4.0 | 11.0 | 0.00 | 0.01 | 0.01 | 77 | 1005.1 |
| 20260505224827 | 64 | 182 | 8.0 | 11.0 | 0.00 | 0.01 | 0.01 | 78 | 1005.0 |
| 20260505224337 | 64 | 194 | 5.0 | 11.0 | 0.00 | 0.01 | 0.01 | 78 | 1005.0 |
| 20260505223823 | 64 | 194 | 6.0 | 11.0 | 0.00 | 0.01 | 0.01 | 78 | 1005.1 |
| 20260505223329 | 64 | 196 | 7.0 | 10.0 | 0.00 | 0.01 | 0.01 | 78 | 1005.1 |
| 20260505222818 | 64 | 204 | 4.0 | 9.0 | 0.00 | 0.01 | 0.01 | 78 | 1005.1 |
| 20260505222326 | 64 | 215 | 5.0 | 10.0 | 0.00 | 0.01 | 0.01 | 78 | 1004.9 |
| 20260505221814 | 64 | 215 | 6.0 | 10.0 | 0.00 | 0.01 | 0.01 | 78 | 1004.9 |
| 20260505221324 | 64 | 211 | 5.0 | 11.0 | 0.00 | 0.01 | 0.01 | 79 | 1004.9 |
| 20260505220853 | 63 | 191 | 5.0 | 11.0 | 0.00 | 0.01 | 0.01 | 79 | 1004.9 |
| 20260505220321 | 63 | 199 | 7.0 | 11.0 | 0.00 | 0.01 | 0.01 | 79 | 1005.0 |
| 20260505215844 | 63 | 216 | 6.0 | 11.0 | 0.00 | 0.01 | 0.01 | 79 | 1005.1 |
| 20260505215313 | 63 | 186 | 7.0 | 12.0 | 0.00 | 0.01 | 0.01 | 79 | 1005.1 |
| 20260505214839 | 63 | 184 | 5.0 | 12.0 | 0.00 | 0.01 | 0.01 | 79 | 1005.1 |
| 20260505214326 | 63 | 192 | 5.0 | 10.0 | 0.00 | 0.01 | 0.01 | 79 | 1005.2 |
| 20260505213816 | 63 | 144 | 5.0 | 13.0 | 0.00 | 0.01 | 0.01 | 79 | 1005.4 |
| 20260505213325 | 63 | 180 | 10.0 | 13.0 | 0.00 | 0.01 | 0.01 | 78 | 1005.4 |
| 20260505212849 | 64 | 211 | 6.0 | 11.0 | 0.00 | 0.01 | 0.01 | 78 | 1005.3 |
| 20260505212317 | 64 | 193 | 8.0 | 11.0 | 0.00 | 0.01 | 0.01 | 78 | 1005.3 |
| 20260505211825 | 64 | 219 | 5.0 | 10.0 | 0.00 | 0.01 | 0.01 | 78 | 1005.3 |
| 20260505211313 | 64 | 230 | 5.0 | 11.0 | 0.00 | 0.01 | 0.01 | 77 | 1005.3 |
| 20260505210823 | 64 | 224 | 3.0 | 14.0 | 0.00 | 0.01 | 0.01 | 77 | 1005.7 |
| 20260505210332 | 64 | 236 | 9.0 | 15.0 | 0.00 | 0.01 | 0.01 | 76 | 1005.9 |
| 20260505205819 | 64 | 297 | 9.0 | 17.0 | 0.00 | 0.01 | 0.01 | 75 | 1005.9 |
| 20260505205328 | 64 | 279 | 7.0 | 17.0 | 0.00 | 0.01 | 0.01 | 75 | 1005.8 |
| 20260505204817 | 64 | 264 | 10.0 | 24.0 | 0.00 | 0.01 | 0.01 | 75 | 1005.5 |
| 20260505204322 | 65 | 292 | 9.0 | 24.0 | 0.00 | 0.01 | 0.01 | 76 | 1005.3 |
| 20260505203831 | 65 | 304 | 10.0 | 23.0 | 0.00 | 0.01 | 0.01 | 75 | 1005.1 |
| 20260505203340 | 66 | 301 | 15.0 | 23.0 | 0.00 | 0.01 | 0.01 | 72 | 1004.7 |
| 20260505202828 | 68 | 303 | 7.0 | 23.0 | 0.00 | 0.01 | 0.01 | 68 | 1004.5 |
| 20260505202359 | 70 | 329 | 17.0 | 23.0 | 0.00 | 0.01 | 0.01 | 62 | 1004.5 |
| 20260505201842 | 72 | 277 | 7.0 | 20.0 | 0.00 | 0.01 | 0.01 | 55 | 1003.6 |
| 20260505201325 | 75 | 295 | 13.0 | 20.0 | 0.00 | 0.01 | 0.01 | 50 | 1003.5 |
| 20260505200815 | 75 | 244 | 11.0 | 15.0 | 0.00 | 0.01 | 0.01 | 47 | 1003.2 |
| 20260505200325 | 75 | 261 | 7.0 | 12.0 | 0.00 | 0.01 | 0.01 | 48 | 1003.1 |
| 20260505195813 | 75 | 229 | 6.0 | 14.0 | 0.00 | 0.01 | 0.01 | 47 | 1003.0 |
| 20260505195323 | 76 | 219 | 7.0 | 14.0 | 0.00 | 0.01 | 0.01 | 47 | 1002.8 |
| 20260505194813 | 77 | 261 | 7.0 | 13.0 | 0.00 | 0.01 | 0.01 | 47 | 1002.8 |
| 20260505194321 | 76 | 265 | 9.0 | 14.0 | 0.00 | 0.01 | 0.01 | 47 | 1002.6 |
| 20260505193830 | 75 | 254 | 9.0 | 19.0 | 0.00 | 0.01 | 0.01 | 47 | 1002.6 |
| 20260505193315 | 75 | 224 | 11.0 | 19.0 | 0.00 | 0.01 | 0.01 | 47 | 1002.5 |
| 20260505192824 | 76 | 219 | 10.0 | 21.0 | 0.00 | 0.01 | 0.01 | 47 | 1002.8 |
| 20260505192313 | 76 | 286 | 9.0 | 21.0 | 0.00 | 0.01 | 0.01 | 46 | 1002.8 |
| 20260505191820 | 76 | 211 | 15.0 | 21.0 | 0.00 | 0.01 | 0.01 | 45 | 1002.9 |
| 20260505191329 | 76 | 211 | 11.0 | 20.0 | 0.00 | 0.01 | 0.01 | 47 | 1003.2 |
| 20260505190838 | 76 | 225 | 9.0 | 21.0 | 0.00 | 0.01 | 0.01 | 47 | 1003.3 |
| 20260505190326 | 75 | 269 | 10.0 | 28.0 | 0.00 | 0.01 | 0.01 | 48 | 1003.1 |
| 20260505185816 | 75 | 209 | 20.0 | 28.0 | 0.00 | 0.01 | 0.01 | 46 | 1003.2 |
| 20260505185320 | 75 | 236 | 12.0 | 24.0 | 0.00 | 0.01 | 0.01 | 47 | 1003.2 |
| 20260505184829 | 75 | 238 | 10.0 | 26.0 | 0.00 | 0.01 | 0.01 | 47 | 1003.3 |
| 20260505184319 | 75 | 244 | 15.0 | 26.0 | 0.00 | 0.01 | 0.01 | 46 | 1003.4 |
| 20260505183827 | 75 | 259 | 11.0 | 25.0 | 0.00 | 0.01 | 0.01 | 46 | 1003.7 |
| 20260505183316 | 75 | 249 | 12.0 | 25.0 | 0.00 | 0.01 | 0.01 | 45 | 1003.5 |
| 20260505182824 | 75 | 241 | 12.0 | 25.0 | 0.00 | 0.01 | 0.01 | 45 | 1003.5 |
| 20260505182331 | 75 | 234 | 9.0 | 29.0 | 0.00 | 0.01 | 0.01 | 46 | 1003.4 |
| 20260505181828 | 75 | 227 | 8.0 | 29.0 | 0.00 | 0.01 | 0.01 | 46 | 1003.3 |
| 20260505181330 | 75 | 263 | 11.0 | 27.0 | 0.00 | 0.01 | 0.01 | 46 | 1003.3 |
| 20260505180837 | 75 | 233 | 15.0 | 29.0 | 0.00 | 0.01 | 0.01 | 46 | 1003.3 |
| 20260505180324 | 75 | 252 | 16.0 | 29.0 | 0.00 | 0.01 | 0.01 | 48 | 1003.3 |
| 20260505175832 | 76 | 276 | 17.0 | 24.0 | 0.00 | 0.01 | 0.01 | 44 | 1003.3 |
| 20260505175342 | 76 | 217 | 13.0 | 31.0 | 0.00 | 0.01 | 0.01 | 44 | 1003.4 |
| 20260505174829 | 77 | 214 | 18.0 | 31.0 | 0.00 | 0.01 | 0.01 | 42 | 1003.3 |
| 20260505174314 | 78 | 202 | 11.0 | 29.0 | 0.00 | 0.01 | 0.01 | 43 | 1003.3 |
| 20260505173822 | 78 | 237 | 7.0 | 29.0 | 0.00 | 0.01 | 0.01 | 43 | 1003.3 |
| 20260505173330 | 78 | 242 | 11.0 | 21.0 | 0.00 | 0.01 | 0.01 | 44 | 1003.3 |
| 20260505172838 | 77 | 221 | 8.0 | 25.0 | 0.00 | 0.01 | 0.01 | 44 | 1003.2 |